Kinston, NC

7:54 AM EDT on July 28, 2017 (GMT -0400)
Kinston Regional Jetport / Stallings Field

Weather History for KISO - May, 2014

Change the Weather History Date:

Tuesday, May 13, 2014

  Actual Average Record
Temperature  
Mean Temperature 80 °F -  
Max Temperature 91 °F 78 °F 96 °F (2000)
Min Temperature 68 °F 58 °F 44 °F (2008)
Cooling Degree Days 14    
Growing Degree Days 30 (Base 50)    
Moisture  
Dew Point 66 °F    
Average Humidity 77    
Maximum Humidity 100    
Minimum Humidity 33    
Precipitation  
Precipitation 0.00 in - - ()
Sea Level Pressure  
Sea Level Pressure 30.14 in    
Wind  
Wind Speed 5 mph (SSW)    
Max Wind Speed 13 mph    
Max Gust Speed 16 mph    
Visibility 9 miles    
Events      
Averages and records for this station are not official NWS values.
T = Trace of Precipitation, MM = Missing Value Source: NWS Daily Summary

Daily Weather History Graph

Daily Weather History Graph

Search for Another Location

Airport or City:

Trip Planner

Search our weather history database for the weather conditions in past years. The results will help you decide how hot, cold, wet, or windy it might be!

Date:

Astronomy

May. 13, 2014 Rise Set
Actual Time 6:07 AM EDT 8:06 PM EDT
Civil Twilight 5:39 AM EDT 8:34 PM EDT
Nautical Twilight 5:05 AM EDT 9:08 PM EDT
Astronomical Twilight 4:29 AM EDT 9:45 PM EDT
Moon 7:08 PM EDT (5/13) 5:19 AM EDT (5/13)
Length of Visible Light 14h 54m
Length of Day
13h 58m
Waxing Gibbous, 98% of the Moon is Illuminated
May 13
Waxing Gibbous
May 14
Full
May 21
Last Quarter
May 28
New
Jun 5
First Quarter

Hourly Weather History & Observations

Time (EDT) Temp. Heat Index Dew Point Humidity Pressure Visibility Wind Dir Wind Speed Gust Speed Precip Events Conditions
12:15 AM 73.2 °F - 69.6 °F 88% 30.15 in 10.0 mi SSW 4.6 mph - N/A   Clear
12:35 AM 72.3 °F - 69.8 °F 92% 30.14 in 10.0 mi SSW 4.6 mph - N/A   Clear
12:55 AM 71.6 °F - 68.9 °F 91% 30.14 in 10.0 mi SSW 3.5 mph - N/A   Clear
1:15 AM 71.6 °F - 68.9 °F 91% 30.14 in 10.0 mi South 5.8 mph - N/A   Clear
1:35 AM 70.9 °F - 68.2 °F 91% 30.14 in 7.0 mi SSW 3.5 mph - N/A   Clear
1:55 AM 70.9 °F - 68.9 °F 93% 30.13 in 7.0 mi South 4.6 mph - N/A   Clear
2:15 AM 69.8 °F - 68.0 °F 94% 30.13 in 7.0 mi SSW 4.6 mph - N/A   Clear
2:35 AM 69.8 °F - 68.0 °F 94% 30.13 in 7.0 mi SSW 4.6 mph - N/A   Clear
2:55 AM 69.1 °F - 67.3 °F 94% 30.12 in 7.0 mi SSW 4.6 mph - N/A   Clear
3:15 AM 68.9 °F - 67.1 °F 94% 30.12 in 7.0 mi SSW 3.5 mph - N/A   Clear
3:35 AM 68.4 °F - 66.7 °F 95% 30.12 in 7.0 mi SW 3.5 mph - N/A   Clear
3:55 AM 68.4 °F - 66.7 °F 95% 30.12 in 7.0 mi SW 3.5 mph - N/A   Clear
4:15 AM 68.4 °F - 66.7 °F 95% 30.13 in 7.0 mi SW 4.6 mph - N/A   Clear
4:35 AM 68.0 °F - 66.4 °F 95% 30.13 in 7.0 mi SW 4.6 mph - N/A   Clear
4:55 AM 68.2 °F - 66.4 °F 94% 30.14 in 7.0 mi SW 4.6 mph - N/A   Clear
5:15 AM 68.4 °F - 66.7 °F 95% 30.14 in 7.0 mi SSW 6.9 mph - N/A   Clear
5:35 AM 68.0 °F - 66.6 °F 95% 30.14 in 7.0 mi SSW 5.8 mph - N/A   Clear
5:55 AM 68.0 °F - 66.4 °F 95% 30.14 in 7.0 mi SW 4.6 mph - N/A   Clear
6:15 AM 68.0 °F - 66.6 °F 95% 30.14 in 7.0 mi SW 5.8 mph - N/A   Clear
6:35 AM 68.2 °F - 66.7 °F 95% 30.15 in 7.0 mi SSW 5.8 mph - N/A   Clear
6:56 AM 68.0 °F - 68.0 °F 100% 30.16 in 10.0 mi SW 4.6 mph - N/A   Clear
7:56 AM 71.6 °F - 68.0 °F 88% 30.16 in 10.0 mi SW 9.2 mph - N/A   Clear
10:56 AM 82.4 °F 84.6 °F 66.2 °F 58% 30.17 in 10.0 mi WSW 4.6 mph - N/A   Clear
11:56 AM 86.0 °F 88.2 °F 66.2 °F 51% 30.17 in 10.0 mi WSW 9.2 mph - N/A   Clear
12:56 PM 87.8 °F 90.4 °F 66.2 °F 49% 30.16 in 10.0 mi West 3.5 mph - N/A   Scattered Clouds
1:56 PM 89.6 °F 91.1 °F 64.4 °F 43% 30.14 in 10.0 mi SW 3.5 mph - N/A   Scattered Clouds
2:56 PM 87.8 °F 88.5 °F 62.6 °F 43% 30.13 in 10.0 mi SSE 3.5 mph - N/A   Scattered Clouds
3:56 PM 91.4 °F 91.4 °F 60.8 °F 36% 30.11 in 10.0 mi South 6.9 mph - N/A   Scattered Clouds
4:56 PM 91.4 °F 90.7 °F 59.0 °F 34% 30.10 in 10.0 mi South 5.8 mph - N/A   Clear
5:56 PM 89.6 °F 88.1 °F 57.2 °F 33% 30.09 in 10.0 mi South 5.8 mph - N/A   Clear
6:56 PM 87.8 °F 89.4 °F 64.4 °F 46% 30.09 in 10.0 mi SSE 12.7 mph 16.1 mph N/A   Clear
8:56 PM 80.6 °F 82.7 °F 66.2 °F 61% 30.13 in 10.0 mi South 9.2 mph - N/A   Clear
9:56 PM 77.0 °F - 64.4 °F 65% 30.14 in 10.0 mi South 6.9 mph - N/A   Clear
10:15 PM 76.5 °F - 65.1 °F 68% 30.15 in 10.0 mi South 5.8 mph - N/A   Clear
10:35 PM 75.4 °F - 65.3 °F 71% 30.16 in 10.0 mi South 5.8 mph - N/A   Clear
10:55 PM 74.7 °F - 65.5 °F 73% 30.16 in 10.0 mi South 4.6 mph - N/A   Clear
11:15 PM 73.6 °F - 65.7 °F 76% 30.17 in 10.0 mi South 4.6 mph - N/A   Clear
11:35 PM 73.6 °F - 65.7 °F 76% 30.17 in 10.0 mi South 4.6 mph - N/A   Clear
11:55 PM 72.5 °F - 65.5 °F 79% 30.17 in 10.0 mi SSW 5.8 mph - N/A   Clear